Weather History for Oelwein, IA

Change the Weather History Date:

Wednesday, August 13, 2014

  Actual Average Record
Temperature  
Mean Temperature 66 °F -  
Max Temperature 80 °F 80 °F 94 °F (1965)
Min Temperature 51 °F 60 °F 37 °F (1964)
Growing Degree Days 16 (Base 50)    
Moisture  
Dew Point 57 °F    
Average Humidity 72    
Maximum Humidity 94    
Minimum Humidity 48    
Precipitation  
Precipitation 0.00 in - - ()
Sea Level Pressure  
Sea Level Pressure 30.08 in    
Wind  
Wind Speed 6 mph (WNW)    
Max Wind Speed 14 mph    
Max Gust Speed 20 mph    
Visibility 10 miles    
Events      
Averages and records for this station are not official NWS values.
T = Trace of Precipitation, MM = Missing Value Source: NWS Daily Summary

Daily Weather History Graph

Daily Weather History Graph

Search for Another Location

Airport:

Trip Planner

Search our weather history database for the weather conditions in past years. The results will help you decide how hot, cold, wet, or windy it might be!

Date:

Astronomy

Aug. 13, 2014 Rise Set
Actual Time 6:12 AM CDT 8:12 PM CDT
Civil Twilight 5:41 AM CDT 8:42 PM CDT
Nautical Twilight 5:03 AM CDT 9:20 PM CDT
Astronomical Twilight 4:22 AM CDT 10:01 PM CDT
Moon 9:51 PM CDT (8/13) 9:46 AM CDT (8/13)
Length of Visible Light 15h 01m
Length of Day
14h 00m
Waning Gibbous, 87% of the Moon is Illuminated
Aug 13
Waning Gibbous
Aug 17
Last Quarter
Aug 25
New
Sep 2
First Quarter
Sep 8
Full

Hourly Weather History & Observations

Time (CDT) Temp. Heat Index Dew Point Humidity Pressure Visibility Wind Dir Wind Speed Gust Speed Precip Events Conditions
12:15 AM 57.2 °F - 53.6 °F 88% 30.06 in 10.0 mi NNW 3.5 mph - N/A   Clear
12:35 AM 57.2 °F - 53.6 °F 88% 30.06 in 10.0 mi NW 3.5 mph - N/A   Clear
12:55 AM 55.4 °F - 51.8 °F 88% 30.06 in 10.0 mi West 3.5 mph - N/A   Clear
1:15 AM 55.4 °F - 51.8 °F 88% 30.06 in - Calm Calm - N/A   Unknown
1:35 AM 55.4 °F - 51.8 °F 88% 30.06 in 10.0 mi West 3.5 mph - N/A   Clear
1:55 AM 53.6 °F - 51.8 °F 94% 30.06 in 10.0 mi West 5.8 mph - N/A   Clear
2:15 AM 53.6 °F - 50.0 °F 88% 30.06 in 10.0 mi West 5.8 mph - N/A   Clear
2:35 AM 53.6 °F - 51.8 °F 94% 30.06 in 10.0 mi West 4.6 mph - N/A   Clear
2:55 AM 53.6 °F - 51.8 °F 94% 30.06 in 10.0 mi NW 5.8 mph - N/A   Clear
3:15 AM 53.6 °F - 50.0 °F 88% 30.07 in 10.0 mi WNW 5.8 mph - N/A   Clear
3:35 AM 51.8 °F - 50.0 °F 94% 30.07 in 10.0 mi West 9.2 mph - N/A   Clear
3:55 AM 51.8 °F - 50.0 °F 94% 30.07 in 10.0 mi West 6.9 mph - N/A   Clear
4:15 AM 51.8 °F - 50.0 °F 94% 30.07 in 10.0 mi West 3.5 mph - N/A   Clear
4:35 AM 51.8 °F - 50.0 °F 94% 30.07 in 10.0 mi WNW 3.5 mph - N/A   Clear
4:55 AM 51.8 °F - 50.0 °F 94% 30.07 in 10.0 mi WNW 4.6 mph - N/A   Clear
5:15 AM 51.8 °F - 50.0 °F 94% 30.08 in 10.0 mi WNW 4.6 mph - N/A   Clear
5:35 AM 51.8 °F - 50.0 °F 94% 30.09 in 10.0 mi West 6.9 mph - N/A   Clear
6:15 AM 51.8 °F - 50.0 °F 94% 30.09 in 10.0 mi WNW 4.6 mph - N/A   Clear
6:35 AM 51.8 °F - 50.0 °F 94% 30.10 in 10.0 mi WNW 3.5 mph - N/A   Clear
6:55 AM 53.6 °F - 51.8 °F 94% 30.11 in 10.0 mi Calm Calm - N/A   Clear
7:55 AM 59.0 °F - 55.4 °F 88% 30.11 in 10.0 mi WNW 6.9 mph - N/A   Clear
8:15 AM 60.8 °F - 57.2 °F 88% 30.12 in 7.0 mi NW 8.1 mph - N/A   Clear
8:35 AM 62.6 °F - 57.2 °F 82% 30.12 in 10.0 mi NW 5.8 mph - N/A   Clear
8:55 AM 66.2 °F - 59.0 °F 78% 30.12 in 10.0 mi NW 8.1 mph - N/A   Clear
9:35 AM 69.8 °F - 59.0 °F 68% 30.12 in 10.0 mi WNW 9.2 mph - N/A   Clear
9:55 AM 71.6 °F - 59.0 °F 64% 30.12 in 9.0 mi NW 8.1 mph 13.8 mph N/A   Clear
10:15 AM 73.4 °F - 60.8 °F 65% 30.12 in 10.0 mi WNW 9.2 mph - N/A   Clear
10:35 AM 75.2 °F - 60.8 °F 61% 30.12 in 10.0 mi WNW 12.7 mph - N/A   Clear
10:55 AM 75.2 °F - 60.8 °F 61% 30.11 in 10.0 mi WNW 8.1 mph 13.8 mph N/A   Clear
11:15 AM 77.0 °F - 60.8 °F 57% 30.11 in 10.0 mi WNW 10.4 mph - N/A   Clear
11:35 AM 77.0 °F - 60.8 °F 57% 30.11 in 10.0 mi NW 11.5 mph 17.3 mph N/A   Clear
11:55 AM 77.0 °F - 60.8 °F 57% 30.11 in 10.0 mi NW 12.7 mph - N/A   Clear
12:15 PM 78.8 °F - 59.0 °F 51% 30.11 in 10.0 mi NW 13.8 mph - N/A   Clear
12:35 PM 78.8 °F - 59.0 °F 51% 30.10 in 10.0 mi NW 11.5 mph 19.6 mph N/A   Clear
12:55 PM 78.8 °F - 59.0 °F 51% 30.10 in 10.0 mi NW 10.4 mph - N/A   Partly Cloudy
1:15 PM 78.8 °F - 59.0 °F 51% 30.10 in 10.0 mi NW 13.8 mph - N/A   Scattered Clouds
1:35 PM 78.8 °F - 60.8 °F 54% 30.09 in 10.0 mi WNW 10.4 mph - N/A   Partly Cloudy
1:55 PM 80.6 °F 81.5 °F 60.8 °F 51% 30.09 in 10.0 mi NW 12.7 mph 18.4 mph N/A   Scattered Clouds
2:15 PM 80.6 °F 81.1 °F 59.0 °F 48% 30.08 in 10.0 mi WNW 10.4 mph 16.1 mph N/A   Partly Cloudy
2:35 PM 78.8 °F - 60.8 °F 54% 30.09 in 10.0 mi NW 8.1 mph 13.8 mph N/A   Partly Cloudy
2:55 PM 80.6 °F 81.5 °F 60.8 °F 51% 30.08 in 10.0 mi WNW 12.7 mph 18.4 mph N/A   Scattered Clouds
3:15 PM 80.6 °F 81.1 °F 59.0 °F 48% 30.08 in 10.0 mi West 9.2 mph - N/A   Mostly Cloudy
3:35 PM 80.6 °F 81.1 °F 59.0 °F 48% 30.08 in 10.0 mi NW 8.1 mph 15.0 mph N/A   Mostly Cloudy
3:55 PM 80.6 °F 81.5 °F 60.8 °F 51% 30.07 in 10.0 mi WNW 10.4 mph - N/A   Mostly Cloudy
4:15 PM 80.6 °F 81.5 °F 60.8 °F 51% 30.06 in 10.0 mi WNW 11.5 mph 17.3 mph N/A   Partly Cloudy
4:35 PM 80.6 °F 81.5 °F 60.8 °F 51% 30.06 in 10.0 mi WNW 10.4 mph - N/A   Partly Cloudy
5:15 PM 80.6 °F 81.5 °F 60.8 °F 51% 30.05 in 10.0 mi West 9.2 mph - N/A   Mostly Cloudy
5:35 PM 80.6 °F 81.1 °F 59.0 °F 48% 30.05 in 10.0 mi WNW 10.4 mph - N/A   Mostly Cloudy
5:55 PM 80.6 °F 81.5 °F 60.8 °F 51% 30.05 in 10.0 mi WNW 8.1 mph 13.8 mph N/A   Mostly Cloudy
6:15 PM 80.6 °F 81.5 °F 60.8 °F 51% 30.05 in 10.0 mi WNW 9.2 mph - N/A   Mostly Cloudy
6:35 PM 78.8 °F - 62.6 °F 57% 30.05 in 10.0 mi West 5.8 mph - N/A   Mostly Cloudy
11:15 PM 68.0 °F - 62.6 °F 83% 30.08 in 10.0 mi NW 4.6 mph - N/A   Overcast
11:55 PM 68.0 °F - 62.6 °F 83% 30.09 in 10.0 mi NNE 4.6 mph - N/A   Mostly Cloudy